Station FPST2 - 8772471 - Freeport SPIP, TX Image indicating link to RSS feed of recent meteorological observations for station FPST2


Conditions at FPST2 as of
(9:18 am CDT)
1418 GMT on 07/15/2024:
     

Click on the graph icon in the table below to see a time series plot of the last five days of that observation.

5-day plot - Wind Direction Wind Direction (WDIR):SSW ( 200 deg true )
5-day plot - Wind Speed Wind Speed (WSPD): 11.1 kts
5-day plot - Wind Gust Wind Gust (GST): 12.0 kts
5-day plot - Atmospheric Pressure Atmospheric Pressure (PRES):30.07 in
5-day plot - Air Temperature Air Temperature (ATMP): 85.1 °F
5-day plot - Water Temperature Water Temperature (WTMP): 85.6 °F
5-day plot - Wind Speed at 10 Meters Wind Speed at 10 meters (WSPD10M): 11.7 kts
5-day plot - Wind Speed at 20 Meters Wind Speed at 20 meters (WSPD20M): 11.7 kts
5-day plot -  Wind Speed, Wind Gust and Atmospheric Pressure Combined plot of Wind Speed, Gust, and Air Pressure
NOS Water Level Observation Network Water Level
Previous observations
TIME
(CDT)
5-day plot - Wind Direction
WDIR
 
5-day plot - Wind Speed
WSPD
kts
5-day plot - Wind Gust
GST
kts
5-day plot - Wave Height
WVHT
ft
5-day plot - Dominant Wave Period
DPD
sec
5-day plot - Average Wave Period
APD
sec
5-day plot - Mean Wave Direction
MWD
 
5-day plot - Atmospheric Pressure
PRES
in
5-day plot - Pressure Tendency
PTDY
in
5-day plot - Air Temperature
ATMP
°F
5-day plot - Water Temperature
WTMP
°F
5-day plot - Dew Point
DEWP
°F
5-day plot - Salinity
SAL
psu
5-day plot - Visibility
VIS
nmi
5-day plot - Tide (above MLLW)
TIDE
ft
2024-07-15 09:12 amSSW 11.1 12.0----30.07- 85.1 85.5----
2024-07-15 09:06 amSSW 9.9 11.1----30.07- 84.9 85.5----
2024-07-15 09:00 amSSW 8.9 11.1----30.07+0.04 84.7 85.6----
2024-07-15 08:54 amSSW 8.9 9.9----30.07- 84.7 85.6----
2024-07-15 08:48 amSSW 8.9 11.1----30.07- 84.7 85.6----
2024-07-15 08:42 amSSW 8.0 8.9----30.07- 84.7 85.6----
2024-07-15 08:36 amSSW 7.0 8.9----30.07- 84.7 85.6----
2024-07-15 08:30 amSSW 8.0 8.9----30.06- 84.7 85.5----
2024-07-15 08:24 amSSW 8.0 8.9----30.06- 84.7 85.8----
2024-07-15 08:18 amSSW 8.9 9.9----30.06- 84.9 85.8----
2024-07-15 08:12 amSSW 8.9 9.9----30.05- 84.7 85.8----
2024-07-15 08:06 amSSW 8.9 9.9----30.05- 84.6 85.8----
2024-07-15 08:00 amSSW 8.9 11.1----30.05+0.02 84.7 85.8----
2024-07-15 07:54 amSSW 9.9 11.1----30.05- 84.6 85.8----
2024-07-15 07:48 amSSW 9.9 11.1----30.05- 84.7 86.0----
2024-07-15 07:42 am S 9.9 12.0----30.05- 84.6 85.8----
2024-07-15 07:36 amSSW 11.1 12.0----30.05- 84.6 86.0----
2024-07-15 07:30 amSSW 11.1 12.0----30.05- 84.6 85.8----
2024-07-15 07:24 amSSW 9.9 12.0----30.04- 84.6 85.6----
2024-07-15 07:18 am S 9.9 12.0----30.04- 84.7 85.8----
2024-07-15 07:12 amSSW 9.9 12.0----30.04- 84.6 85.8----
2024-07-15 07:06 amSSW 9.9 12.0----30.04- 84.6 85.6----
2024-07-15 07:00 amSSW 8.0 12.0----30.04+0.02 84.7 85.6----
2024-07-15 06:54 amSSW 9.9 12.0----30.04- 84.4 85.8----
2024-07-15 06:48 amSSW 12.0 13.0----30.03- 84.4 86.0----
2024-07-15 06:42 amSSW 11.1 13.0----30.03- 84.6 85.8----
2024-07-15 06:36 amSSW 9.9 12.0----30.03- 84.4 85.8----
2024-07-15 06:30 amSSW 11.1 13.0----30.03- 84.6 85.8----
2024-07-15 06:24 am S 12.0 13.0----30.03- 84.4 85.6----
2024-07-15 06:18 amSSW 9.9 13.0----30.03- 84.4 86.0----
2024-07-15 06:12 amSSW 12.0 13.0----30.03- 84.4 85.8----
2024-07-15 06:06 amSSW 9.9 12.0----30.03- 84.6 86.0----
2024-07-15 06:00 amSSW 11.1 12.0----30.03+0.00 84.7 85.8----
2024-07-15 05:54 amSSW 11.1 12.0----30.03- 84.7 85.6----
2024-07-15 05:48 am S 11.1 13.0----30.03- 84.6 85.8----
2024-07-15 05:42 amSSW 11.1 13.0----30.03- 84.6 85.8----
2024-07-15 05:36 amSSW 11.1 13.0----30.03- 84.6 85.8----
2024-07-15 05:30 amSSW 11.1 13.0----30.03- 84.6 85.8----
2024-07-15 05:24 amSSW 12.0 12.0----30.03- 84.6 86.0----
2024-07-15 05:18 amSSW 8.9 11.1----30.03- 84.7 85.8----
2024-07-15 05:12 amSSW 8.9 9.9----30.03- 84.6 86.0----
2024-07-15 05:06 amSSW 9.9 12.0----30.03- 84.6 85.6----
2024-07-15 05:00 am S 8.9 12.0----30.03-0.02 84.7 86.0----
2024-07-15 04:54 amSSW 8.9 11.1----30.02- 84.6 86.2----
2024-07-15 04:48 amSSW 9.9 12.0----30.03- 84.7 86.2----
2024-07-15 04:42 amSSW 9.9 11.1----30.03- 84.7 86.4----
2024-07-15 04:36 am S 9.9 12.0----30.02- 84.6 86.4----
2024-07-15 04:30 amSSW 11.1 12.0----30.02- 84.7 86.4----
2024-07-15 04:24 amSSW 9.9 11.1----30.02- 84.9 86.2----
2024-07-15 04:18 amSSW 8.9 11.1----30.02- 84.7 86.2----
2024-07-15 04:12 amSSW 8.0 9.9----30.02- 84.7 86.2----
2024-07-15 04:06 amSSW 8.0 11.1----30.02- 84.9 86.2----
2024-07-15 04:00 amSSW 9.9 11.1----30.02-0.03 85.1 86.2----
2024-07-15 03:54 am S 9.9 12.0----30.03- 84.9 86.2----
2024-07-15 03:48 am S 9.9 12.0----30.02- 84.9 86.2----
2024-07-15 03:42 amSSE 9.9 11.1----30.02- 84.9 86.2----
2024-07-15 03:36 am S 8.9 11.1----30.02- 84.9 86.4----
2024-07-15 03:30 am S 8.9 11.1----30.03- 84.9 86.4----
2024-07-15 03:24 am S 9.9 12.0----30.03- 84.9 86.4----
2024-07-15 03:18 am S 9.9 12.0----30.03- 84.7 86.4----
2024-07-15 03:12 am S 9.9 11.1----30.03- 84.7 86.4----
2024-07-15 03:06 am S 8.9 11.1----30.03- 84.9 86.4----
2024-07-15 03:00 am S 8.9 11.1----30.03-0.02 84.9 86.4----
2024-07-15 02:54 am S 11.1 12.0----30.03- 84.7 86.5----
2024-07-15 02:48 am S 8.9 11.1----30.03- 84.9 86.5----
2024-07-15 02:42 am S 8.9 9.9----30.03- 84.9 86.5----
2024-07-15 02:36 am S 8.9 9.9----30.03- 84.9 86.5----
2024-07-15 02:30 am S 8.9 9.9----30.03- 84.9 86.5----
2024-07-15 02:24 am S 8.0 9.9----30.04- 84.9 86.5----
2024-07-15 02:18 am S 8.9 9.9----30.04- 85.1 86.4----
2024-07-15 02:12 am S 8.0 9.9----30.04- 85.1 86.2----
2024-07-15 02:06 am S 8.9 9.9----30.04- 85.1 86.4----
2024-07-15 02:00 am S 8.0 9.9----30.04+0.00 85.3 86.4----
2024-07-15 01:54 am S 9.9 11.1----30.04- 85.1 86.4----
2024-07-15 01:48 am S 9.9 11.1----30.04- 85.3 86.4----
2024-07-15 01:42 am S 8.9 9.9----30.05- 84.9 86.5----
2024-07-15 01:36 am S 8.9 11.1----30.04- 85.1 86.5----
2024-07-15 01:30 am S 9.9 12.0----30.05- 84.9 86.5----
2024-07-15 01:24 am S 11.1 12.0----30.05- 84.9 86.5----
2024-07-15 01:18 am S 11.1 12.0----30.05- 85.1 86.5----
2024-07-15 01:12 am S 9.9 12.0----30.05- 85.1 86.7----
2024-07-15 01:06 am S 9.9 12.0----30.06- 85.1 86.5----
2024-07-15 01:00 am S 9.9 11.1----30.06+0.01 85.1 86.4----
2024-07-15 12:54 am S 9.9 11.1----30.06- 84.9 86.5----
2024-07-15 12:48 am S 8.9 9.9----30.06-- 86.5----
2024-07-15 12:42 am S 9.9 11.1----30.06-- 86.5----
2024-07-15 12:36 am S 8.9 12.0----30.05-- 86.4----
2024-07-15 12:30 am S 11.1 13.0----30.05- 84.9 86.5----
2024-07-15 12:24 am S 9.9 14.0----30.05- 85.1 86.5----
2024-07-15 12:18 am S 11.1 12.0----30.05- 85.1 86.5----
2024-07-15 12:12 am S 11.1 12.0----30.05- 85.1 86.5----
2024-07-15 12:06 am S 11.1 12.0----30.05- 85.1 86.7----
2024-07-15 12:00 am S 9.9 12.0----30.06+0.02 85.1 86.5----
2024-07-14 11:54 pm S 9.9 12.0----30.06- 85.1 86.7----
2024-07-14 11:48 pm S 11.1 12.0----30.06- 84.9 86.7----
2024-07-14 11:42 pm S 11.1 13.0----30.05- 84.9 86.7----
2024-07-14 11:36 pm S 11.1 13.0----30.05- 84.9 86.7----
2024-07-14 11:30 pm S 11.1 13.0----30.05-- 86.7----
2024-07-14 11:24 pm S 11.1 12.0----30.05-- 86.5----
2024-07-14 11:18 pm S 9.9 12.0----30.05- 85.3 86.7----
2024-07-14 11:12 pm S 11.1 12.0----30.05- 85.3 86.5----
2024-07-14 11:06 pm S 9.9 12.0----30.05- 85.1 86.5----
2024-07-14 11:00 pm S 11.1 12.0----30.05+0.00 85.1 86.7----
2024-07-14 10:54 pm S 9.9 12.0----30.05- 84.9 86.5----
2024-07-14 10:48 pm S 8.9 11.1----30.04- 85.1 86.7----
2024-07-14 10:42 pm S 8.0 11.1----30.05- 85.3 86.7----
2024-07-14 10:36 pm S 8.9 9.9----30.05- 85.1 86.7----
2024-07-14 10:30 pm S 8.9 11.1----30.04- 85.1 87.1----
2024-07-14 10:24 pm S 8.9 11.1----30.04- 85.3 87.1----
2024-07-14 10:18 pm S 8.9 11.1----30.04- 85.1 87.1----
2024-07-14 10:12 pm S 8.9 11.1----30.05- 85.3 86.9----
2024-07-14 10:06 pm S 9.9 12.0----30.04- 85.5 86.9----
2024-07-14 10:00 pm S 11.1 12.0----30.04-0.01 85.5-----
2024-07-14 09:54 pm S 8.9 12.0----30.04- 85.3-----
2024-07-14 09:48 pm-------30.04- 85.5 86.9----
2024-07-14 09:42 pm-------30.03- 85.1 86.9----
2024-07-14 09:36 pm-------30.03- 85.1 86.9----
2024-07-14 09:30 pm S 11.1 12.0----30.03- 85.1 86.9----
2024-07-14 09:24 pm S 9.9 12.0----30.03- 85.1 86.9----
2024-07-14 09:18 pm S 9.9 11.1----30.03- 85.3 86.7----
2024-07-14 09:12 pmSSE 9.9 12.0----30.03- 85.3 86.7----
2024-07-14 09:06 pm S 9.9 12.0----30.04- 85.3 86.7----
2024-07-14 09:00 pm S 9.9 12.0----30.03-0.02 85.3 86.9----
2024-07-14 08:54 pm S 11.1 12.0----30.03- 85.3 87.1----
2024-07-14 08:48 pm S 9.9 12.0----30.04- 85.3 87.1----
2024-07-14 08:42 pm S 9.9 12.0----30.04- 85.5 87.1----
2024-07-14 08:36 pm S 9.9 11.1----30.04- 85.3 86.9----
2024-07-14 08:30 pm S 8.9 11.1----30.04- 85.5 86.7----
2024-07-14 08:24 pm S 9.9 12.0----30.04- 85.3 86.9----
2024-07-14 08:18 pm S 9.9 12.0----30.04-- 87.1----
2024-07-14 08:12 pm S 9.9 12.0----30.04-- 87.1----
2024-07-14 08:06 pmSSE 8.9 11.1----30.04-- 86.7----
2024-07-14 08:00 pmSSE 8.9 9.9----30.04-0.03 85.5 86.9----
2024-07-14 07:54 pm S 8.0 9.9----30.05- 85.6 86.7----
2024-07-14 07:48 pm S 8.0 8.9----30.05-- 86.7----
2024-07-14 07:42 pm S 8.0 9.9----30.05-- 86.9----
2024-07-14 07:36 pm S 8.0 9.9----30.05-- 86.9----
2024-07-14 07:30 pmSSE 8.0 8.9----30.05- 85.8 87.1----
2024-07-14 07:24 pmSSE 8.9 9.9----30.05- 85.6 86.9----
2024-07-14 07:18 pm S 8.9 11.1----30.05-- 86.9----
2024-07-14 07:12 pmSSE 7.0 9.9----30.05-- 87.3----
2024-07-14 07:06 pm S 8.0 9.9----30.05-- 87.3----
2024-07-14 07:00 pm S 8.9 9.9----30.05-0.04- 87.3----
2024-07-14 06:54 pm S 8.9 11.1----30.06-- 87.3----
2024-07-14 06:48 pmSSE 9.9 12.0----30.06- 86.2 87.3----
2024-07-14 06:42 pmSSE 9.9 12.0----30.06- 86.0 87.1----
2024-07-14 06:36 pm S 9.9 12.0----30.05- 86.0 87.4----
2024-07-14 06:30 pm S 9.9 12.0----30.05-- 87.4----
2024-07-14 06:24 pm S 9.9 13.0----30.05-- 87.3----
2024-07-14 06:18 pm S 11.1 13.0----30.05- 86.4 87.4----
2024-07-14 06:12 pmSSE 12.0 13.0----30.06- 86.2 86.9----
2024-07-14 06:06 pm S 12.0 14.0----30.06- 86.2 87.3----
2024-07-14 06:00 pmSSE 11.1 13.0----30.06-0.04 86.4 86.9----
2024-07-14 05:54 pmSSE 12.0 14.0----30.06- 86.4 87.8----
2024-07-14 05:48 pmSSE 11.1 12.0----30.06- 86.4 87.4----
2024-07-14 05:42 pm S 9.9 14.0----30.06- 86.5 86.9----
2024-07-14 05:36 pmSSE 8.9 12.0----30.07- 86.5 86.7----
2024-07-14 05:30 pmSSE 11.1 13.0----30.07- 86.5 86.2----
2024-07-14 05:24 pmSSE 11.1 14.0----30.07- 86.4 86.5----
2024-07-14 05:18 pmSSE 11.1 13.0----30.07- 86.5 86.2----
2024-07-14 05:12 pmSSE 12.0 13.0----30.07- 86.4 86.4----
2024-07-14 05:06 pmSSE 11.1 12.0----30.07- 86.5 87.1----
2024-07-14 05:00 pm S 9.9 11.1----30.08-0.04- 87.8----
2024-07-14 04:54 pmSSE 9.9 12.0----30.08-- 86.7----
2024-07-14 04:48 pmSSE 8.9 12.0----30.07- 86.7 86.5----
2024-07-14 04:42 pmSSE 8.9 12.0----30.08- 86.7 86.5----
2024-07-14 04:36 pmSSE 9.9 12.0----30.08- 86.5 86.4----
2024-07-14 04:30 pmSSE 9.9 12.0----30.08-- 86.0----
2024-07-14 04:24 pmSSE 9.9 12.0----30.08-- 86.5----
2024-07-14 04:18 pmSSE 9.9 12.0----30.09- 86.5 86.0----
2024-07-14 04:12 pmSSE 9.9 12.0----30.09- 86.9 87.1----
2024-07-14 04:06 pmSSE 9.9 11.1----30.09- 86.9 85.8----
2024-07-14 04:00 pmSSE 9.9 12.0----30.09-0.04 86.7 86.5----
2024-07-14 03:54 pmSSE 9.9 11.1----30.09- 86.9 86.9----
2024-07-14 03:48 pmSSE 9.9 11.1----30.09- 86.9 86.4----
2024-07-14 03:42 pmSSE 9.9 12.0----30.09- 86.9 86.5----
2024-07-14 03:36 pmSSE 8.9 12.0----30.09- 87.1 86.0----
2024-07-14 03:30 pmSSE 9.9 12.0----30.09- 86.7 86.2----
2024-07-14 03:24 pmSSE 12.0 13.0----30.09- 86.5 85.8----
2024-07-14 03:18 pmSSE 11.1 12.0----30.09-- 85.8----
2024-07-14 03:12 pm SE 11.1 13.0----30.10-- 86.2----
2024-07-14 03:06 pmSSE 11.1 12.0----30.10-- 85.8----
2024-07-14 03:00 pmSSE 12.0 13.0----30.10-- 85.8----
2024-07-14 02:54 pmSSE 8.9 12.0----30.10-- 85.6----
2024-07-14 02:48 pmSSE 9.9 12.0----30.11- 86.2 85.6----
2024-07-14 02:42 pmSSE 11.1 12.0----30.11- 86.2 85.6----
2024-07-14 02:36 pmSSE 8.9 11.1----30.11- 86.5 85.8----
2024-07-14 02:30 pmSSE 9.9 11.1----30.11-- 85.8----
2024-07-14 02:24 pmSSE 8.9 12.0----30.11-- 86.0----
2024-07-14 02:18 pmSSE 8.9 11.1----30.11- 86.4 86.4----
2024-07-14 02:12 pmSSE 8.9 11.1----30.11- 86.5 86.5----
2024-07-14 02:06 pmSSE 9.9 11.1----30.11- 86.2 86.2----
2024-07-14 02:00 pmSSE 9.9 11.1----30.11-0.03 86.2 86.4----
2024-07-14 01:54 pmSSE 9.9 11.1----30.11- 86.2 86.4----
2024-07-14 01:48 pm S 8.0 9.9----30.11- 86.2 85.8----
2024-07-14 01:42 pm S 9.9 11.1----30.12- 85.8 85.8----
2024-07-14 01:36 pmSSE 8.0 9.9----30.12- 86.2 85.8----
2024-07-14 01:30 pm S 8.0 11.1----30.12-- 86.2----
2024-07-14 01:24 pmSSE 8.0 8.9----30.12-- 86.5----
2024-07-14 01:18 pmSSE 7.0 8.9----30.12-------
2024-07-14 01:12 pm S 8.0 8.9----30.12-------
2024-07-14 01:06 pmSSE 8.0 8.9----30.12-------
2024-07-14 01:00 pm S 7.0 8.9----30.12-0.01 86.0 86.2----
2024-07-14 12:54 pmSSE 7.0 8.9----30.12- 86.0 86.0----
2024-07-14 12:48 pmSSE 7.0 8.0----30.13-- 85.8----
2024-07-14 12:42 pm S 8.0 8.9----30.13-- 86.2----
2024-07-14 12:36 pm S 6.0 8.0----30.13-- 86.2----
2024-07-14 12:30 pm S 7.0 8.0----30.13-- 86.0----
2024-07-14 12:24 pm S 6.0 7.0----30.13-- 85.8----
2024-07-14 12:18 pmSSE 6.0 7.0----30.13- 86.2 86.0----
2024-07-14 12:12 pm S 7.0 8.0----30.13- 85.6 85.6----
2024-07-14 12:06 pm S 6.0 8.0----30.13- 85.6 85.6----
2024-07-14 12:00 pm S 6.0 8.0------ 86.0 85.5----
2024-07-14 11:54 am S 6.0 7.0------ 85.8 85.6----
2024-07-14 11:48 am S 6.0 7.0----30.13- 85.8 85.5----
2024-07-14 11:42 am S 6.0 7.0----30.13- 85.8 85.5----
2024-07-14 11:36 amSSW 5.1 6.0----30.13- 86.0 85.5----
2024-07-14 11:30 amSSW 5.1 6.0----30.13- 86.0 85.6----
2024-07-14 11:24 amSSW 5.1 7.0----30.13- 86.0 85.5----
2024-07-14 11:18 am-------30.13- 86.2 85.6----
2024-07-14 11:12 am-------30.13- 85.8 85.6----
2024-07-14 11:06 am-------30.14- 85.8 85.6----
2024-07-14 11:00 amSSW 5.1 7.0----30.14+0.01 85.8 85.6----
2024-07-14 10:54 amSSW 6.0 7.0----30.14- 85.5 86.0----
2024-07-14 10:48 amSSW 6.0 7.0----30.14-- 85.5----
2024-07-14 10:42 amSSW 6.0 6.0----30.14-- 85.5----
2024-07-14 10:36 am SW 5.1 6.0----30.14-- 85.6----
2024-07-14 10:30 amSSW 5.1 6.0----30.14- 85.5 85.5----
2024-07-14 10:24 amSSW 5.1 6.0----30.14- 85.3 85.5----
2024-07-14 10:18 amSSW 4.1 6.0----30.14- 85.6 85.6----
2024-07-14 10:12 am S 4.1 6.0----30.14- 85.6 85.8----
2024-07-14 10:06 amSSW 5.1 6.0----30.14- 85.3 85.5----
2024-07-14 10:00 amSSW 5.1 7.0----30.14+0.03 85.1 85.5----
2024-07-14 09:54 amSSW 6.0 7.0----30.14- 85.1 85.6----
2024-07-14 09:48 amSSW 5.1 7.0------ 85.3 85.5----
2024-07-14 09:42 am S 4.1 5.1------ 85.5 85.8----
2024-07-14 09:36 amSSW 5.1 6.0------ 85.3 85.5----
2024-07-14 09:30 amSSW 5.1 6.0----30.13- 85.1 85.6----
2024-07-14 09:24 amSSW 5.1 6.0----30.13- 85.3 85.5----
2024-07-14 09:18 am SW 5.1 6.0----30.13- 85.5 85.5----
2024-07-14 09:12 amSSW 5.1 6.0----30.13- 85.3 85.5----
2024-07-14 09:06 amSSW 5.1 6.0----30.13- 85.5 85.5----
2024-07-14 09:00 am-------30.13+0.03 85.6 85.5----
2024-07-14 08:54 am-------30.13- 85.6 85.5----